Location: Unspecified
(0.0000°N, 0.0000°E)
Time: 18:49:51
(UTC+00:00)

Vanguard 3 - Pass Details

Date: 28 November 2019
Orbit: 508 x 3263 km, 33.3° (Epoch: 06 December)

Event Time Altitude Azimuth Distance (km) Brightness Sun altitude
Rises 09:49:12 0° 267° (W) 4,559 10.7 54.1°
Reaches altitude 10° 09:52:12 10° 277° (W) 3,923 10.5 54.7°
Maximum altitude 10:01:56 34° 337° (NNW) 3,367 10.4 56.5°
Drops below altitude 10° 10:16:42 10° 35° (NE) 5,910 11.6 59.2°
Sets 10:22:42 0° 43° (NE) 7,139 11.9 60.2°
